Location: Beemte
(52.2555°N, 5.9895°E)
Time: 10:48:51
(UTC+00:00)

USA 186 - Pass Details

Date: 15 May 2026
Orbit: 338 x 359 km, 97.0° (Epoch: 19 May)

Event Time Altitude Azimuth Distance (km) Brightness Sun altitude
Exits shadow 21:12:57 - 211° (SSW) 1,578 4.4 -12.5°
Reaches altitude 10° 21:13:53 10° 223° (SW) 1,279 4.1 -12.6°
Maximum altitude 21:15:46 17° 267° (W) 967 4.0 -12.8°
Drops below altitude 10° 21:17:41 10° 311° (NW) 1,296 5.5 -12.9°
Sets 21:20:03 0° 333° (NNW) 2,142 7.4 -13.1°
